Hourly Weather Kisumu

Today, 30 July, Friday

Time Temperature Precipitation Wind Pressure Humidity
00:00 +20°C° 0 mm 2 mps 665 mmHg 86%
01:00 +20°C° 0 mm 2 mps 665 mmHg 85%
02:00 +20°C° 0 mm 2 mps 664 mmHg 84%
03:00 +19°C° 0 mm 2 mps 664 mmHg 85%
04:00 +19°C° 0 mm 2 mps 665 mmHg 86%
05:00 +19°C° 0 mm 2 mps 665 mmHg 86%
06:00 +20°C° 0 mm 2 mps 665 mmHg 80%
07:00 +23°C° 0 mm 1 mps 666 mmHg 74%
08:00 +24°C° 0 mm 1 mps 666 mmHg 68%
09:00 +26°C° 0 mm 2 mps 666 mmHg 61%
10:00 +27°C° 0 mm 2 mps 666 mmHg 54%
11:00 +29°C° 0 mm 2 mps 666 mmHg 47%
12:00 +29°C° 0 mm 2 mps 666 mmHg 46%
13:00 +30°C° 0 mm 2 mps 665 mmHg 44%
14:00 +30°C° 0 mm 2 mps 665 mmHg 43%
15:00 +29°C° 0 mm 2 mps 665 mmHg 49%
16:00 +27°C° 0 mm 2 mps 664 mmHg 55%
17:00 +26°C° 0 mm 2 mps 664 mmHg 61%
18:00 +25°C° 0.1 mm 2 mps 665 mmHg 64%
19:00 +24°C° 0.1 mm 1 mps 665 mmHg 67%
20:00 +21°C° 0.1 mm 0 mps 665 mmHg 70%
21:00 +22°C° 0 mm 1 mps 665 mmHg 73%
22:00 +21°C° 0 mm 2 mps 665 mmHg 76%
23:00 +20°C° 0 mm 2 mps 665 mmHg 79%

Tomorrow, 31 July, Saturday

Time Temperature Precipitation Wind Pressure Humidity
00:00 +19°C° 0 mm 2 mps 665 mmHg 79%
01:00 +19°C° 0 mm 2 mps 665 mmHg 79%
02:00 +19°C° 0 mm 3 mps 664 mmHg 79%
03:00 +19°C° 0 mm 2 mps 664 mmHg 80%
04:00 +18°C° 0 mm 2 mps 664 mmHg 81%
05:00 +18°C° 0 mm 2 mps 665 mmHg 81%
06:00 +20°C° 0 mm 2 mps 665 mmHg 75%
07:00 +21°C° 0 mm 2 mps 666 mmHg 68%
08:00 +24°C° 0 mm 2 mps 667 mmHg 62%
09:00 +26°C° 0 mm 2 mps 667 mmHg 55%
10:00 +27°C° 0 mm 2 mps 667 mmHg 49%
11:00 +29°C° 0 mm 2 mps 667 mmHg 42%
12:00 +30°C° 0 mm 3 mps 666 mmHg 40%
13:00 +30°C° 0 mm 3 mps 666 mmHg 38%
14:00 +31°C° 0 mm 3 mps 665 mmHg 37%
15:00 +30°C° 0 mm 3 mps 665 mmHg 42%
16:00 +28°C° 0 mm 4 mps 665 mmHg 48%
17:00 +27°C° 0 mm 4 mps 665 mmHg 54%
18:00 +25°C° 0 mm 3 mps 665 mmHg 59%
19:00 +23°C° 0 mm 2 mps 666 mmHg 64%
20:00 +22°C° 0 mm 1 mps 666 mmHg 68%
21:00 +21°C° 0 mm 1 mps 666 mmHg 70%
22:00 +20°C° 0 mm 2 mps 666 mmHg 71%
23:00 +20°C° 0 mm 2 mps 666 mmHg 72%

Day after tomorrow, 1 August, Sunday

Time Temperature Precipitation Wind Pressure Humidity
00:00 +19°C° 0 mm 2 mps 666 mmHg 74%
01:00 +18°C° 0 mm 2 mps 665 mmHg 77%
02:00 +18°C° 0 mm 3 mps 665 mmHg 80%
03:00 +17°C° 0 mm 2 mps 665 mmHg 80%
04:00 +17°C° 0 mm 2 mps 665 mmHg 81%
05:00 +17°C° 0 mm 2 mps 665 mmHg 81%
06:00 +19°C° 0 mm 2 mps 666 mmHg 75%
07:00 +20°C° 0 mm 2 mps 666 mmHg 68%
08:00 +23°C° 0 mm 2 mps 667 mmHg 61%
09:00 +25°C° 0 mm 2 mps 667 mmHg 54%
10:00 +27°C° 0 mm 2 mps 667 mmHg 47%
11:00 +29°C° 0 mm 2 mps 667 mmHg 40%
12:00 +29°C° 0 mm 2 mps 667 mmHg 38%
13:00 +30°C° 0 mm 2 mps 666 mmHg 37%
14:00 +30°C° 0 mm 2 mps 665 mmHg 35%
15:00 +29°C° 0 mm 3 mps 665 mmHg 41%
16:00 +28°C° 0 mm 3 mps 665 mmHg 46%
17:00 +27°C° 0 mm 3 mps 665 mmHg 52%
18:00 +25°C° 0 mm 3 mps 665 mmHg 58%
19:00 +23°C° 0 mm 2 mps 666 mmHg 64%
20:00 +21°C° 0 mm 1 mps 666 mmHg 70%
21:00 +21°C° 0 mm 1 mps 666 mmHg 73%
22:00 +20°C° 0 mm 1 mps 666 mmHg 75%
23:00 +19°C° 0 mm 1 mps 666 mmHg 78%

2 August, Monday

Time Temperature Precipitation Wind Pressure Humidity
00:00 +19°C° 0 mm 2 mps 666 mmHg 76%
01:00 +19°C° 0 mm 2 mps 665 mmHg 74%
02:00 +19°C° 0 mm 2 mps 665 mmHg 73%
03:00 +19°C° 0 mm 2 mps 665 mmHg 73%
04:00 +19°C° 0 mm 3 mps 665 mmHg 74%
05:00 +19°C° 0 mm 3 mps 665 mmHg 75%
06:00 +20°C° 0 mm 3 mps 666 mmHg 69%
07:00 +23°C° 0 mm 2 mps 666 mmHg 64%
08:00 +24°C° 0 mm 2 mps 667 mmHg 58%
09:00 +26°C° 0 mm 2 mps 667 mmHg 52%
10:00 +28°C° 0 mm 2 mps 667 mmHg 45%
11:00 +30°C° 0 mm 2 mps 667 mmHg 38%
12:00 +30°C° 0 mm 2 mps 666 mmHg 36%
13:00 +30°C° 0 mm 2 mps 666 mmHg 35%
14:00 +31°C° 0 mm 3 mps 665 mmHg 33%
15:00 +30°C° 0 mm 3 mps 665 mmHg 38%
16:00 +29°C° 0 mm 3 mps 665 mmHg 43%
17:00 +28°C° 0 mm 3 mps 665 mmHg 48%
18:00 +26°C° 0 mm 3 mps 665 mmHg 55%
19:00 +23°C° 0 mm 2 mps 665 mmHg 61%
20:00 +20°C° 0 mm 2 mps 666 mmHg 67%
21:00 +20°C° 0 mm 2 mps 666 mmHg 69%
22:00 +21°C° 0 mm 1 mps 666 mmHg 70%
23:00 +20°C° 0 mm 1 mps 666 mmHg 72%

3 August, Tuesday

Time Temperature Precipitation Wind Pressure Humidity
00:00 +19°C° 0 mm 2 mps 665 mmHg 72%
01:00 +19°C° 0 mm 2 mps 665 mmHg 72%
02:00 +18°C° 0 mm 2 mps 665 mmHg 72%
03:00 +19°C° 0 mm 2 mps 665 mmHg 70%
04:00 +19°C° 0 mm 2 mps 665 mmHg 68%
05:00 +19°C° 0 mm 2 mps 665 mmHg 66%
06:00 +21°C° 0 mm 2 mps 666 mmHg 61%
07:00 +24°C° 0 mm 2 mps 667 mmHg 56%
08:00 +26°C° 0 mm 2 mps 667 mmHg 50%
09:00 +28°C° 0 mm 2 mps 667 mmHg 45%
10:00 +29°C° 0 mm 2 mps 667 mmHg 40%
11:00 +31°C° 0 mm 2 mps 667 mmHg 34%
12:00 +31°C° 0 mm 3 mps 667 mmHg 35%
13:00 +31°C° 0 mm 3 mps 666 mmHg 35%
14:00 +31°C° 0 mm 3 mps 665 mmHg 35%
15:00 +30°C° 0 mm 4 mps 665 mmHg 40%
16:00 +28°C° 0 mm 4 mps 665 mmHg 45%
17:00 +27°C° 0 mm 4 mps 665 mmHg 51%
18:00 +25°C° 0 mm 3 mps 665 mmHg 55%
19:00 +24°C° 0 mm 2 mps 666 mmHg 60%
20:00 +22°C° 0 mm 1 mps 666 mmHg 65%
21:00 +21°C° 0 mm 2 mps 666 mmHg 66%
22:00 +20°C° 0 mm 2 mps 666 mmHg 66%
23:00 +20°C° 0 mm 2 mps 665 mmHg 67%

4 August, Wednesday

Time Temperature Precipitation Wind Pressure Humidity
00:00 +19°C° 0 mm 2 mps 665 mmHg 68%
01:00 +19°C° 0 mm 2 mps 665 mmHg 69%
02:00 +19°C° 0 mm 2 mps 665 mmHg 70%
03:00 +19°C° 0 mm 2 mps 665 mmHg 69%
04:00 +19°C° 0 mm 3 mps 665 mmHg 69%
05:00 +19°C° 0 mm 3 mps 665 mmHg 68%
06:00 +21°C° 0 mm 2 mps 666 mmHg 63%
07:00 +24°C° 0 mm 2 mps 667 mmHg 58%
08:00 +26°C° 0 mm 2 mps 667 mmHg 52%
09:00 +28°C° 0 mm 2 mps 667 mmHg 48%
10:00 +29°C° 0 mm 2 mps 667 mmHg 43%
11:00 +31°C° 0 mm 2 mps 668 mmHg 39%
12:00 +31°C° 0 mm 2 mps 667 mmHg 38%
13:00 +31°C° 0 mm 2 mps 666 mmHg 37%
14:00 +31°C° 0 mm 2 mps 666 mmHg 36%
15:00 +30°C° 0 mm 2 mps 666 mmHg 43%
16:00 +28°C° 0 mm 2 mps 666 mmHg 50%
17:00 +27°C° 0 mm 2 mps 666 mmHg 57%
18:00 +26°C° 0 mm 2 mps 666 mmHg 60%
19:00 +25°C° 0 mm 1 mps 666 mmHg 62%
20:00 +24°C° 0 mm 1 mps 666 mmHg 64%
21:00 +23°C° 0 mm 1 mps 666 mmHg 66%
22:00 +23°C° 0 mm 1 mps 666 mmHg 67%
23:00 +22°C° 0 mm 1 mps 666 mmHg 69%
Show more